Location: Cul de Sac
(18.0387°N, 63.0654°W)
Time: 16:31:52
(UTC+00:00)

COSMO-SKYMED 1 - Pass Details

Date: 29 October 2020
Orbit: 621 x 623 km, 97.9° (Epoch: 28 November)

Event Time Altitude Azimuth Distance (km) Brightness Sun altitude
Rises 22:01:03 0° 12° (NNE) 2,893 5.7 -5.4°
Reaches altitude 10° 22:03:14 10° 12° (NNE) 1,986 4.9 -5.9°
Maximum altitude 22:07:34 88° 99° (E) 624 2.6 -6.9°
Drops below altitude 10° 22:11:53 10° 191° (SSW) 1,981 5.5 -7.9°
Sets 22:14:04 0° 192° (SSW) 2,885 6.3 -8.5°
